time, beta470, beta532, beta650
yyyy/mm/dd HH:MM:SS.fff, counts, counts, counts
2023/06/21 05:00:01.849, 118, 134, 79
2023/06/21 05:00:02.969, 110, 136, 80
2023/06/21 05:00:04.104, 111, 132, 84
2023/06/21 05:00:05.240, 112, 129, 84
2023/06/21 05:00:06.361, 110, 132, 84
2023/06/21 05:00:07.496, 110, 127, 86
2023/06/21 05:00:08.616, 115, 124, 82
2023/06/21 05:00:09.752, 112, 137, 81
2023/06/21 05:00:10.888, 114, 134, 83
2023/06/21 05:00:12.008, 118, 135, 81
2023/06/21 05:00:13.144, 115, 135, 85
2023/06/21 05:00:14.280, 109, 130, 83
2023/06/21 05:00:15.400, 298, 141, 80
2023/06/21 05:00:16.536, 163, 127, 82
2023/06/21 05:00:17.656, 116, 138, 82
2023/06/21 05:00:18.791, 108, 131, 81
2023/06/21 05:00:19.927, 113, 137, 80
2023/06/21 05:00:21.048, 111, 142, 78
2023/06/21 05:00:22.183, 109, 148, 86
2023/06/21 05:00:23.319, 109, 128, 84
2023/06/21 05:00:24.439, 107, 123, 83
2023/06/21 05:00:25.575, 115, 125, 89
2023/06/21 05:00:26.695, 112, 126, 80
2023/06/21 05:00:27.831, 110, 130, 83
2023/06/21 05:00:28.967, 110, 129, 87
2023/06/21 05:00:30.087, 113, 128, 87
2023/06/21 05:00:31.223, 119, 132, 81
2023/06/21 05:00:32.343, 111, 133, 85
2023/06/21 05:00:33.479, 119, 140, 88
2023/06/21 05:00:34.615, 119, 141, 93
2023/06/21 05:00:35.735, 119, 145, 94
2023/06/21 05:00:36.870, 122, 147, 89
2023/06/21 05:00:38.006, 125, 141, 88
2023/06/21 05:00:39.126, 126, 152, 91
2023/06/21 05:00:40.262, 116, 146, 91
2023/06/21 05:00:41.382, 114, 141, 89
2023/06/21 05:00:42.518, 119, 145, 96
2023/06/21 05:00:43.654, 123, 155, 91
2023/06/21 05:00:44.774, 124, 151, 93
2023/06/21 05:00:45.910, 126, 147, 93
2023/06/21 05:00:47.046, 139, 150, 95
2023/06/21 05:00:48.166, 122, 157, 96
2023/06/21 05:00:49.302, 126, 158, 97
2023/06/21 05:00:50.422, 122, 157, 91
2023/06/21 05:00:51.558, 124, 146, 90
2023/06/21 05:00:52.694, 120, 147, 89
2023/06/21 05:00:53.814, 124, 147, 88
2023/06/21 05:00:54.949, 127, 144, 90
2023/06/21 05:00:56.069, 123, 147, 97
2023/06/21 05:00:57.205, 129, 149, 96
2023/06/21 05:00:58.341, 121, 152, 89
2023/06/21 05:00:59.461, 124, 164, 91
2023/06/21 05:01:00.597, 121, 143, 87
2023/06/21 05:01:01.733, 122, 146, 94
2023/06/21 05:01:02.853, 125, 155, 86
2023/06/21 05:01:03.988, 127, 156, 87
2023/06/21 05:01:05.109, 122, 151, 92
2023/06/21 05:01:06.245, 124, 144, 89
2023/06/21 05:01:07.381, 123, 140, 90
2023/06/21 05:01:08.500, 121, 144, 90
2023/06/21 05:01:09.636, 119, 146, 91
2023/06/21 05:01:10.772, 124, 143, 88
2023/06/21 05:01:11.892, 119, 154, 86
2023/06/21 05:01:13.028, 122, 149, 94
2023/06/21 05:01:14.148, 118, 151, 85
2023/06/21 05:01:15.284, 117, 148, 102
2023/06/21 05:01:16.420, 119, 150, 89
2023/06/21 05:01:17.540, 120, 150, 88
2023/06/21 05:01:18.676, 121, 141, 91
2023/06/21 05:01:19.812, 122, 144, 89
2023/06/21 05:01:20.931, 122, 143, 90
2023/06/21 05:01:22.068, 115, 146, 92
2023/06/21 05:01:23.204, 116, 145, 94
2023/06/21 05:01:24.323, 119, 145, 86
2023/06/21 05:01:25.460, 117, 138, 90
2023/06/21 05:01:26.579, 118, 139, 105
2023/06/21 05:01:27.715, 119, 135, 83
2023/06/21 05:01:28.851, 115, 136, 82
2023/06/21 05:01:29.971, 116, 138, 84
2023/06/21 05:01:31.107, 118, 140, 90
2023/06/21 05:01:32.227, 117, 140, 87
2023/06/21 05:01:33.363, 118, 138, 85
2023/06/21 05:01:34.499, 116, 134, 84
2023/06/21 05:01:35.619, 115, 135, 86
2023/06/21 05:01:36.755, 112, 136, 84
2023/06/21 05:01:37.875, 114, 138, 85
2023/06/21 05:01:39.011, 114, 132, 83
2023/06/21 05:01:40.147, 110, 137, 87
2023/06/21 05:01:41.267, 113, 135, 84
2023/06/21 05:01:42.403, 112, 131, 81
2023/06/21 05:01:43.538, 113, 136, 82
2023/06/21 05:01:44.658, 113, 132, 85
2023/06/21 05:01:45.794, 117, 135, 87
2023/06/21 05:01:46.914, 111, 131, 85
2023/06/21 05:01:48.050, 113, 134, 81
2023/06/21 05:01:49.186, 114, 136, 85
2023/06/21 05:01:50.306, 110, 132, 82
2023/06/21 05:01:51.442, 113, 137, 81
2023/06/21 05:01:52.578, 111, 136, 83
2023/06/21 05:01:53.698, 116, 128, 85
2023/06/21 05:01:54.834, 112, 130, 86
2023/06/21 05:01:55.954, 113, 131, 79
2023/06/21 05:01:57.090, 112, 145, 83
2023/06/21 05:01:58.225, 111, 130, 78
2023/06/21 05:01:59.345, 111, 127, 82
2023/06/21 05:02:00.481, 113, 127, 82
2023/06/21 05:02:01.617, 111, 137, 80
2023/06/21 05:02:02.737, 107, 154, 79
2023/06/21 05:02:03.873, 117, 147, 80
2023/06/21 05:02:04.993, 109, 142, 79
2023/06/21 05:02:06.129, 104, 127, 83
2023/06/21 05:02:07.265, 112, 123, 80
2023/06/21 05:02:08.385, 112, 125, 86
2023/06/21 05:02:09.521, 112, 131, 82
2023/06/21 05:02:10.657, 111, 128, 82
2023/06/21 05:02:11.777, 113, 128, 82
2023/06/21 05:02:12.913, 108, 126, 83
2023/06/21 05:02:14.033, 109, 131, 80
2023/06/21 05:02:15.168, 109, 126, 79
2023/06/21 05:02:16.304, 108, 126, 77
2023/06/21 05:02:17.424, 108, 128, 81
2023/06/21 05:02:18.560, 105, 127, 83
2023/06/21 05:02:19.696, 107, 128, 76
2023/06/21 05:02:20.816, 110, 125, 81
2023/06/21 05:02:21.952, 106, 132, 80
2023/06/21 05:02:23.072, 111, 135, 78
2023/06/21 05:02:24.208, 108, 127, 79
2023/06/21 05:02:25.344, 107, 132, 75
2023/06/21 05:02:26.463, 106, 126, 77
2023/06/21 05:02:27.600, 108, 127, 74
2023/06/21 05:02:28.736, 107, 122, 79
2023/06/21 05:02:29.856, 109, 127, 75
2023/06/21 05:02:30.991, 105, 121, 76
2023/06/21 05:02:32.111, 109, 121, 79
2023/06/21 05:02:33.247, 104, 119, 76
2023/06/21 05:02:34.383, 107, 121, 75
2023/06/21 05:02:35.503, 105, 120, 76
2023/06/21 05:02:36.639, 106, 122, 76
2023/06/21 05:02:37.759, 108, 121, 82
2023/06/21 05:02:38.895, 109, 120, 73
2023/06/21 05:02:40.031, 108, 119, 76
2023/06/21 05:02:41.150, 107, 122, 73
2023/06/21 05:02:42.287, 108, 120, 76
2023/06/21 05:02:43.423, 107, 115, 74
2023/06/21 05:02:44.543, 105, 119, 76
2023/06/21 05:02:45.679, 113, 118, 77
2023/06/21 05:02:46.799, 105, 133, 76
2023/06/21 05:02:47.934, 104, 115, 78
2023/06/21 05:02:49.070, 102, 118, 76
2023/06/21 05:02:50.190, 102, 115, 76
2023/06/21 05:02:51.326, 101, 115, 73
2023/06/21 05:02:52.446, 99, 121, 72
2023/06/21 05:02:53.582, 105, 120, 73
2023/06/21 05:02:54.718, 104, 117, 77
2023/06/21 05:02:55.838, 101, 118, 76
2023/06/21 05:02:56.974, 101, 117, 79
2023/06/21 05:02:58.109, 100, 114, 81
2023/06/21 05:02:59.230, 102, 114, 82
2023/06/21 05:03:00.366, 99, 119, 75
2023/06/21 05:03:01.485, 106, 111, 73
2023/06/21 05:03:02.622, 99, 113, 73
2023/06/21 05:03:03.758, 101, 115, 73
2023/06/21 05:03:04.877, 103, 116, 75
2023/06/21 05:03:06.013, 102, 115, 78
2023/06/21 05:03:07.133, 101, 113, 78
2023/06/21 05:03:08.269, 100, 113, 77
2023/06/21 05:03:09.405, 103, 112, 74
2023/06/21 05:03:10.525, 112, 112, 77
2023/06/21 05:03:11.661, 106, 114, 75
2023/06/21 05:03:12.796, 99, 110, 75
2023/06/21 05:03:13.917, 103, 111, 70
2023/06/21 05:03:15.052, 101, 115, 79
2023/06/21 05:03:16.173, 99, 116, 74
2023/06/21 05:03:17.308, 99, 109, 75
2023/06/21 05:03:18.444, 100, 113, 75
2023/06/21 05:03:19.565, 99, 112, 75
2023/06/21 05:03:20.700, 104, 110, 72
2023/06/21 05:03:21.820, 99, 113, 76
2023/06/21 05:03:22.956, 98, 112, 71
2023/06/21 05:03:24.076, 99, 112, 72
2023/06/21 05:03:25.211, 102, 108, 74
2023/06/21 05:03:26.348, 99, 108, 72
2023/06/21 05:03:27.468, 98, 110, 69
2023/06/21 05:03:28.604, 100, 113, 72
2023/06/21 05:03:29.724, 97, 108, 71
2023/06/21 05:03:30.860, 100, 108, 71
2023/06/21 05:03:31.996, 98, 111, 73
2023/06/21 05:03:33.116, 103, 109, 74
2023/06/21 05:03:34.252, 102, 109, 73
2023/06/21 05:03:35.371, 98, 108, 70
2023/06/21 05:03:36.507, 97, 112, 72
2023/06/21 05:03:37.627, 97, 113, 74
2023/06/21 05:03:38.763, 96, 108, 69
2023/06/21 05:03:39.899, 101, 108, 72
2023/06/21 05:03:41.019, 98, 106, 68
2023/06/21 05:03:42.154, 97, 104, 70
2023/06/21 05:03:43.275, 97, 106, 71
2023/06/21 05:03:44.411, 96, 106, 68
2023/06/21 05:03:45.546, 96, 109, 72
2023/06/21 05:03:46.667, 96, 106, 71
2023/06/21 05:03:47.803, 96, 108, 72
2023/06/21 05:03:48.923, 92, 107, 72
2023/06/21 05:03:50.059, 95, 109, 71
2023/06/21 05:03:51.178, 99, 108, 72
2023/06/21 05:03:52.314, 98, 109, 69
2023/06/21 05:03:53.450, 96, 104, 71
2023/06/21 05:03:54.570, 95, 103, 68
2023/06/21 05:03:55.706, 95, 102, 71
2023/06/21 05:03:56.826, 95, 101, 69
2023/06/21 05:03:57.962, 95, 102, 70
2023/06/21 05:03:59.082, 95, 105, 70
2023/06/21 05:04:00.218, 95, 103, 73
2023/06/21 05:04:01.354, 96, 104, 71
2023/06/21 05:04:02.473, 93, 108, 70
2023/06/21 05:04:03.610, 97, 111, 69
2023/06/21 05:04:04.730, 97, 105, 71
2023/06/21 05:04:05.866, 96, 104, 68
2023/06/21 05:04:06.986, 94, 104, 70
2023/06/21 05:04:08.122, 94, 104, 68
2023/06/21 05:04:09.257, 95, 104, 71
2023/06/21 05:04:10.377, 97, 101, 70
2023/06/21 05:04:11.513, 93, 103, 70
2023/06/21 05:04:12.633, 94, 105, 68
2023/06/21 05:04:13.769, 96, 102, 71
2023/06/21 05:04:14.889, 95, 105, 68
2023/06/21 05:04:16.024, 98, 119, 67
2023/06/21 05:04:17.161, 94, 106, 69
2023/06/21 05:04:18.281, 93, 106, 67
2023/06/21 05:04:19.417, 93, 104, 70
2023/06/21 05:04:20.537, 92, 104, 69
2023/06/21 05:04:21.673, 93, 101, 69
2023/06/21 05:04:22.793, 94, 101, 69
2023/06/21 05:04:23.929, 94, 106, 70
2023/06/21 05:04:25.065, 94, 104, 69
2023/06/21 05:04:26.184, 92, 104, 69
2023/06/21 05:04:27.320, 98, 102, 69
2023/06/21 05:04:28.441, 95, 102, 67
2023/06/21 05:04:29.576, 93, 100, 69
2023/06/21 05:04:30.696, 96, 103, 69
2023/06/21 05:04:31.832, 96, 100, 67
2023/06/21 05:04:32.952, 97, 101, 69
2023/06/21 05:04:34.088, 89, 103, 70
2023/06/21 05:04:35.223, 91, 101, 65
2023/06/21 05:04:36.344, 92, 102, 70
2023/06/21 05:04:37.480, 93, 101, 66
2023/06/21 05:04:38.600, 94, 103, 69
2023/06/21 05:04:39.735, 92, 97, 65
2023/06/21 05:04:40.855, 93, 102, 70
2023/06/21 05:04:41.991, 95, 98, 72
2023/06/21 05:04:43.111, 93, 103, 67
2023/06/21 05:04:44.247, 93, 100, 69
2023/06/21 05:04:45.383, 92, 100, 66
2023/06/21 05:04:46.503, 92, 101, 67
2023/06/21 05:04:47.639, 90, 98, 67
2023/06/21 05:04:48.759, 92, 96, 66
2023/06/21 05:04:49.895, 89, 99, 70
2023/06/21 05:04:51.015, 91, 97, 69
2023/06/21 05:04:52.151, 92, 100, 67
2023/06/21 05:04:53.271, 92, 98, 67
2023/06/21 05:04:54.407, 89, 97, 68
2023/06/21 05:04:55.526, 92, 101, 67
2023/06/21 05:04:56.663, 92, 99, 69
2023/06/21 05:04:57.798, 91, 99, 67
2023/06/21 05:04:58.918, 91, 97, 65
2023/06/21 05:05:00.054, 91, 96, 63
2023/06/21 05:05:01.173, 91, 100, 68
2023/06/21 05:05:02.310, 90, 100, 69
2023/06/21 05:05:03.430, 91, 96, 70
2023/06/21 05:05:04.566, 94, 98, 69
2023/06/21 05:05:05.686, 92, 97, 66
2023/06/21 05:05:06.822, 93, 97, 64
2023/06/21 05:05:07.942, 89, 99, 68
2023/06/21 05:05:09.078, 91, 97, 66
2023/06/21 05:05:10.198, 94, 102, 66
2023/06/21 05:05:11.334, 90, 97, 68
2023/06/21 05:05:12.470, 89, 100, 68
2023/06/21 05:05:13.590, 88, 101, 66
2023/06/21 05:05:14.725, 92, 98, 66
2023/06/21 05:05:15.845, 91, 100, 68
2023/06/21 05:05:16.981, 88, 99, 67
2023/06/21 05:05:18.101, 91, 100, 67
2023/06/21 05:05:19.236, 92, 104, 71
2023/06/21 05:05:20.357, 93, 100, 67
2023/06/21 05:05:21.493, 90, 98, 68
2023/06/21 05:05:22.613, 90, 98, 65
2023/06/21 05:05:23.749, 88, 96, 65
2023/06/21 05:05:24.885, 89, 98, 67
2023/06/21 05:05:26.005, 88, 95, 66
2023/06/21 05:05:27.141, 90, 95, 67
2023/06/21 05:05:28.260, 92, 96, 67
2023/06/21 05:05:29.396, 91, 96, 66
2023/06/21 05:05:30.516, 89, 98, 67
2023/06/21 05:05:31.652, 88, 96, 64
2023/06/21 05:05:32.772, 89, 97, 65
2023/06/21 05:05:33.908, 88, 97, 66
2023/06/21 05:05:35.028, 90, 96, 67
2023/06/21 05:05:36.164, 89, 98, 66
2023/06/21 05:05:37.283, 89, 99, 67
2023/06/21 05:05:38.420, 89, 105, 67
2023/06/21 05:05:39.540, 89, 107, 65
2023/06/21 05:05:40.675, 90, 97, 69
2023/06/21 05:05:41.796, 90, 98, 65
2023/06/21 05:05:42.931, 91, 94, 65
2023/06/21 05:05:44.052, 87, 95, 65
2023/06/21 05:05:45.188, 88, 96, 68
2023/06/21 05:05:46.307, 87, 98, 64
2023/06/21 05:05:47.443, 87, 97, 64
2023/06/21 05:05:48.563, 87, 99, 65
2023/06/21 05:05:49.698, 87, 95, 66
2023/06/21 05:05:50.819, 90, 94, 68
2023/06/21 05:05:51.955, 89, 97, 64
2023/06/21 05:05:53.091, 100, 96, 65
2023/06/21 05:05:54.211, 99, 92, 65
2023/06/21 05:05:55.347, 88, 94, 67
2023/06/21 05:05:56.466, 89, 93, 66
2023/06/21 05:05:57.603, 87, 95, 68
2023/06/21 05:05:58.723, 90, 92, 62
2023/06/21 05:05:59.858, 89, 96, 61
2023/06/21 05:06:00.978, 91, 94, 65
2023/06/21 05:06:02.114, 89, 95, 63
2023/06/21 05:06:03.234, 89, 92, 66
2023/06/21 05:06:04.370, 90, 93, 68
2023/06/21 05:06:05.490, 86, 95, 65
2023/06/21 05:06:06.626, 88, 94, 64
2023/06/21 05:06:07.746, 88, 92, 63
2023/06/21 05:06:08.882, 90, 92, 63
2023/06/21 05:06:10.002, 90, 96, 66
2023/06/21 05:06:11.138, 87, 100, 63
2023/06/21 05:06:12.274, 87, 94, 62
2023/06/21 05:06:13.394, 86, 91, 65
2023/06/21 05:06:14.530, 86, 96, 64
2023/06/21 05:06:15.650, 92, 92, 66
2023/06/21 05:06:16.786, 88, 93, 68
2023/06/21 05:06:17.905, 89, 93, 63
2023/06/21 05:06:19.041, 88, 92, 62
2023/06/21 05:06:20.161, 89, 93, 83
2023/06/21 05:06:21.298, 89, 91, 62
2023/06/21 05:06:22.417, 89, 93, 66
2023/06/21 05:06:23.553, 87, 91, 65
2023/06/21 05:06:24.673, 89, 93, 64
2023/06/21 05:06:25.809, 89, 94, 63
2023/06/21 05:06:26.929, 85, 94, 64
2023/06/21 05:06:28.065, 89, 92, 64
2023/06/21 05:06:29.184, 86, 93, 65
2023/06/21 05:06:30.321, 89, 94, 65
2023/06/21 05:06:31.440, 88, 91, 63
2023/06/21 05:06:32.577, 87, 92, 66
2023/06/21 05:06:33.696, 89, 93, 62
2023/06/21 05:06:34.832, 90, 94, 64
2023/06/21 05:06:35.952, 87, 90, 64
2023/06/21 05:06:37.088, 86, 92, 64
2023/06/21 05:06:38.208, 86, 93, 64
2023/06/21 05:06:39.344, 88, 91, 64
2023/06/21 05:06:40.464, 88, 92, 62
2023/06/21 05:06:41.600, 87, 92, 63
2023/06/21 05:06:42.720, 88, 92, 64
2023/06/21 05:06:43.856, 86, 94, 62
2023/06/21 05:06:44.992, 85, 93, 64
2023/06/21 05:06:46.112, 84, 93, 64
2023/06/21 05:06:47.248, 85, 88, 65
2023/06/21 05:06:48.367, 87, 94, 65
2023/06/21 05:06:49.503, 88, 92, 65
2023/06/21 05:06:50.623, 87, 94, 66
2023/06/21 05:06:51.759, 85, 96, 62
2023/06/21 05:06:52.879, 85, 98, 65
2023/06/21 05:06:54.015, 85, 93, 63
2023/06/21 05:06:55.135, 88, 93, 66
2023/06/21 05:06:56.271, 89, 91, 64
2023/06/21 05:06:57.391, 88, 89, 62
2023/06/21 05:06:58.527, 87, 92, 63
2023/06/21 05:06:59.647, 86, 92, 64
2023/06/21 05:07:00.783, 84, 92, 66
2023/06/21 05:07:01.903, 86, 91, 64
2023/06/21 05:07:03.039, 88, 91, 62
2023/06/21 05:07:04.159, 92, 90, 61
2023/06/21 05:07:05.295, 86, 91, 64
2023/06/21 05:07:06.414, 87, 91, 66
2023/06/21 05:07:07.550, 85, 88, 66
2023/06/21 05:07:08.670, 87, 92, 65
2023/06/21 05:07:09.806, 89, 91, 63
2023/06/21 05:07:10.942, 86, 91, 63
2023/06/21 05:07:12.062, 86, 88, 63
2023/06/21 05:07:13.198, 85, 91, 64
2023/06/21 05:07:14.318, 88, 89, 60
2023/06/21 05:07:15.454, 87, 90, 62
2023/06/21 05:07:16.574, 87, 90, 64
2023/06/21 05:07:17.710, 86, 92, 64
2023/06/21 05:07:18.830, 86, 90, 64
2023/06/21 05:07:19.966, 86, 91, 61
2023/06/21 05:07:21.086, 84, 91, 60
2023/06/21 05:07:22.221, 86, 90, 61
2023/06/21 05:07:23.341, 84, 89, 65
2023/06/21 05:07:24.477, 83, 89, 61
2023/06/21 05:07:25.597, 87, 90, 64
2023/06/21 05:07:26.733, 85, 90, 65
2023/06/21 05:07:27.853, 86, 90, 65
2023/06/21 05:07:28.989, 86, 89, 64
2023/06/21 05:07:30.109, 87, 91, 63
2023/06/21 05:07:31.245, 86, 91, 64
2023/06/21 05:07:32.365, 86, 88, 64
2023/06/21 05:07:33.501, 83, 91, 62
2023/06/21 05:07:34.621, 84, 95, 63
2023/06/21 05:07:35.757, 86, 90, 61
2023/06/21 05:07:36.877, 88, 92, 66
2023/06/21 05:07:38.013, 85, 90, 64
2023/06/21 05:07:39.132, 85, 92, 65
2023/06/21 05:07:40.268, 86, 90, 65
2023/06/21 05:07:41.388, 84, 88, 64
2023/06/21 05:07:42.524, 88, 90, 64
2023/06/21 05:07:43.644, 85, 90, 65
2023/06/21 05:07:44.780, 83, 92, 65
2023/06/21 05:07:45.916, 85, 89, 64
2023/06/21 05:07:47.036, 84, 88, 65
2023/06/21 05:07:48.172, 83, 90, 62
2023/06/21 05:07:49.292, 86, 89, 64
2023/06/21 05:07:50.428, 84, 87, 62
2023/06/21 05:07:51.548, 86, 88, 60
2023/06/21 05:07:52.684, 86, 94, 65
2023/06/21 05:07:53.803, 87, 93, 61
2023/06/21 05:07:54.939, 87, 90, 67
2023/06/21 05:07:56.059, 85, 89, 63
2023/06/21 05:07:57.195, 87, 91, 61
2023/06/21 05:07:58.315, 86, 89, 63
2023/06/21 05:07:59.451, 84, 89, 61
2023/06/21 05:08:00.571, 85, 90, 64
2023/06/21 05:08:01.707, 87, 91, 63
2023/06/21 05:08:02.827, 86, 87, 63
2023/06/21 05:08:03.963, 85, 91, 63
2023/06/21 05:08:05.083, 88, 91, 62
2023/06/21 05:08:06.219, 86, 90, 60
2023/06/21 05:08:07.339, 84, 89, 62
2023/06/21 05:08:08.475, 84, 87, 63
2023/06/21 05:08:09.594, 84, 92, 63
2023/06/21 05:08:10.731, 86, 89, 63
2023/06/21 05:08:11.866, 86, 91, 62
2023/06/21 05:08:12.986, 86, 86, 63
2023/06/21 05:08:14.122, 86, 87, 65
2023/06/21 05:08:15.242, 86, 90, 63
2023/06/21 05:08:16.378, 85, 88, 65
2023/06/21 05:08:17.498, 85, 89, 62
2023/06/21 05:08:18.634, 83, 90, 62
2023/06/21 05:08:19.754, 85, 88, 64
2023/06/21 05:08:20.890, 82, 89, 61
2023/06/21 05:08:22.010, 85, 89, 64
2023/06/21 05:08:23.146, 83, 88, 65
2023/06/21 05:08:24.266, 85, 88, 62
2023/06/21 05:08:25.401, 85, 89, 64
2023/06/21 05:08:26.521, 86, 89, 63
2023/06/21 05:08:27.657, 84, 90, 63
2023/06/21 05:08:28.777, 85, 94, 60
2023/06/21 05:08:29.913, 85, 96, 62
2023/06/21 05:08:31.033, 84, 87, 59
2023/06/21 05:08:32.169, 85, 88, 62
2023/06/21 05:08:33.289, 85, 88, 61
2023/06/21 05:08:34.425, 85, 88, 64
2023/06/21 05:08:35.545, 84, 89, 61
2023/06/21 05:08:36.680, 85, 87, 64
2023/06/21 05:08:37.801, 83, 87, 63
2023/06/21 05:08:38.937, 84, 89, 62
2023/06/21 05:08:40.057, 81, 88, 63
2023/06/21 05:08:41.193, 84, 84, 61
2023/06/21 05:08:42.312, 84, 87, 63
2023/06/21 05:08:43.448, 90, 88, 63
2023/06/21 05:08:44.583, 87, 88, 62
2023/06/21 05:08:45.704, 84, 90, 61
2023/06/21 05:08:46.840, 84, 90, 62
2023/06/21 05:08:47.960, 85, 89, 62
2023/06/21 05:08:49.096, 83, 86, 63
2023/06/21 05:08:50.216, 83, 89, 61
2023/06/21 05:08:51.352, 84, 87, 64
2023/06/21 05:08:52.472, 82, 87, 62
2023/06/21 05:08:53.608, 83, 88, 61
2023/06/21 05:08:54.728, 84, 89, 65
2023/06/21 05:08:55.863, 83, 91, 64
2023/06/21 05:08:56.984, 82, 86, 62
2023/06/21 05:08:58.120, 84, 89, 61
2023/06/21 05:08:59.239, 83, 88, 63
2023/06/21 05:09:00.375, 83, 89, 63
2023/06/21 05:09:01.495, 85, 87, 63
2023/06/21 05:09:02.631, 86, 89, 61
2023/06/21 05:09:03.751, 84, 88, 64
2023/06/21 05:09:04.887, 84, 90, 66
2023/06/21 05:09:06.007, 85, 87, 60
2023/06/21 05:09:07.143, 85, 87, 61
2023/06/21 05:09:08.263, 84, 87, 60
2023/06/21 05:09:09.399, 87, 89, 61
2023/06/21 05:09:10.535, 83, 86, 62
2023/06/21 05:09:11.655, 84, 88, 62
2023/06/21 05:09:12.791, 84, 88, 62
2023/06/21 05:09:13.911, 84, 90, 64
2023/06/21 05:09:15.047, 85, 88, 60
2023/06/21 05:09:16.166, 84, 87, 63
2023/06/21 05:09:17.302, 84, 87, 60
2023/06/21 05:09:18.422, 83, 88, 63
2023/06/21 05:09:19.558, 83, 88, 63
2023/06/21 05:09:20.678, 83, 91, 65
2023/06/21 05:09:21.814, 85, 88, 61
2023/06/21 05:09:22.934, 84, 87, 64
2023/06/21 05:09:24.070, 82, 87, 66
2023/06/21 05:09:25.190, 82, 89, 61
2023/06/21 05:09:26.326, 84, 90, 63
2023/06/21 05:09:27.446, 83, 88, 62
2023/06/21 05:09:28.582, 83, 87, 65
2023/06/21 05:09:29.701, 84, 89, 67
2023/06/21 05:09:30.838, 84, 86, 61
2023/06/21 05:09:31.958, 86, 88, 64
2023/06/21 05:09:33.093, 85, 88, 62
2023/06/21 05:09:34.213, 86, 86, 62
2023/06/21 05:09:35.349, 83, 94, 59
2023/06/21 05:09:36.469, 84, 97, 62
2023/06/21 05:09:37.605, 83, 86, 61
2023/06/21 05:09:38.725, 82, 89, 61
2023/06/21 05:09:39.861, 83, 83, 63
2023/06/21 05:09:40.981, 82, 90, 61
2023/06/21 05:09:42.117, 83, 85, 62
2023/06/21 05:09:43.237, 85, 86, 63
2023/06/21 05:09:44.373, 83, 86, 62
2023/06/21 05:09:45.509, 84, 89, 64
2023/06/21 05:09:46.629, 83, 84, 63
2023/06/21 05:09:47.764, 84, 89, 61
2023/06/21 05:09:48.884, 82, 86, 64
2023/06/21 05:09:50.020, 83, 88, 63
2023/06/21 05:09:51.140, 83, 86, 62
2023/06/21 05:09:52.276, 83, 88, 63
2023/06/21 05:09:53.396, 82, 89, 61
2023/06/21 05:09:54.531, 84, 85, 60
2023/06/21 05:09:55.652, 87, 86, 62
2023/06/21 05:09:56.788, 85, 85, 62
2023/06/21 05:09:57.907, 82, 85, 65
2023/06/21 05:09:59.043, 84, 88, 64
2023/06/21 05:10:00.164, 82, 87, 60
2023/06/21 05:10:01.300, 83, 88, 65
2023/06/21 05:10:02.420, 81, 87, 64
2023/06/21 05:10:03.555, 83, 84, 60
2023/06/21 05:10:04.675, 83, 87, 59
2023/06/21 05:10:05.811, 85, 87, 62
2023/06/21 05:10:06.931, 84, 89, 61
2023/06/21 05:10:08.067, 90, 86, 63
2023/06/21 05:10:09.187, 84, 88, 65
2023/06/21 05:10:10.324, 84, 89, 61
2023/06/21 05:10:11.459, 84, 88, 63
2023/06/21 05:10:12.579, 86, 88, 62
2023/06/21 05:10:13.714, 84, 85, 64
2023/06/21 05:10:14.835, 84, 88, 67
2023/06/21 05:10:15.971, 87, 90, 61
2023/06/21 05:10:17.090, 85, 93, 66
2023/06/21 05:10:18.227, 88, 91, 64
2023/06/21 05:10:19.347, 86, 95, 64
2023/06/21 05:10:20.482, 86, 93, 67
2023/06/21 05:10:21.602, 89, 98, 67
2023/06/21 05:10:22.738, 86, 93, 64
2023/06/21 05:10:23.859, 92, 94, 69
2023/06/21 05:10:24.994, 89, 96, 64
2023/06/21 05:10:26.114, 87, 98, 66
2023/06/21 05:10:27.250, 88, 97, 71
2023/06/21 05:10:28.370, 96, 102, 67
2023/06/21 05:10:29.506, 94, 100, 71
2023/06/21 05:10:30.626, 94, 101, 68
2023/06/21 05:10:31.762, 93, 103, 75
2023/06/21 05:10:32.898, 93, 105, 69
2023/06/21 05:10:34.018, 95, 107, 73
2023/06/21 05:10:35.153, 92, 106, 76
2023/06/21 05:10:36.273, 94, 103, 69
2023/06/21 05:10:37.409, 97, 103, 73
2023/06/21 05:10:38.529, 95, 107, 73
2023/06/21 05:10:39.665, 98, 108, 69
2023/06/21 05:10:40.801, 97, 106, 75
2023/06/21 05:10:41.921, 98, 110, 74
2023/06/21 05:10:43.057, 99, 107, 70
2023/06/21 05:10:44.177, 98, 109, 69
2023/06/21 05:10:45.313, 100, 108, 72
2023/06/21 05:10:46.433, 99, 110, 76
2023/06/21 05:10:47.569, 98, 111, 72
2023/06/21 05:10:48.705, 97, 109, 74
2023/06/21 05:10:49.824, 100, 111, 70
2023/06/21 05:10:50.961, 99, 114, 77
2023/06/21 05:10:52.081, 105, 108, 74
2023/06/21 05:10:53.216, 100, 114, 77
2023/06/21 05:10:54.352, 98, 110, 77
2023/06/21 05:10:55.472, 97, 108, 74
2023/06/21 05:10:56.609, 101, 115, 74
2023/06/21 05:10:57.728, 100, 112, 74
2023/06/21 05:10:58.864, 105, 115, 74
2023/06/21 05:10:59.000, 106, 111, 76
2023/06/21 05:11:01.120, 105, 113, 75
2023/06/21 05:11:02.256, 100, 114, 75
2023/06/21 05:11:03.392, 101, 119, 80
2023/06/21 05:11:04.512, 100, 116, 76
2023/06/21 05:11:05.647, 99, 115, 76
2023/06/21 05:11:06.768, 99, 116, 79
2023/06/21 05:11:07.904, 102, 127, 74
2023/06/21 05:11:09.039, 102, 119, 77
2023/06/21 05:11:10.159, 102, 117, 81
2023/06/21 05:11:11.295, 103, 114, 79
2023/06/21 05:11:12.415, 101, 118, 77
2023/06/21 05:11:13.551, 103, 117, 79
2023/06/21 05:11:14.687, 101, 116, 78
2023/06/21 05:11:15.807, 112, 117, 78
2023/06/21 05:11:16.943, 101, 122, 80
2023/06/21 05:11:18.079, 104, 123, 78
2023/06/21 05:11:19.199, 104, 119, 81
2023/06/21 05:11:20.335, 105, 117, 78
2023/06/21 05:11:21.455, 102, 121, 75
2023/06/21 05:11:22.591, 103, 115, 81
2023/06/21 05:11:23.727, 106, 120, 77
2023/06/21 05:11:24.846, 108, 117, 81
2023/06/21 05:11:25.982, 105, 118, 77
2023/06/21 05:11:27.118, 106, 118, 79
2023/06/21 05:11:28.238, 108, 121, 78
2023/06/21 05:11:29.374, 104, 123, 79
2023/06/21 05:11:30.494, 108, 122, 80
2023/06/21 05:11:31.630, 102, 124, 80
2023/06/21 05:11:32.766, 105, 119, 80
2023/06/21 05:11:33.886, 107, 124, 82
2023/06/21 05:11:35.022, 103, 120, 79
2023/06/21 05:11:36.142, 104, 122, 78
2023/06/21 05:11:37.278, 102, 120, 81
2023/06/21 05:11:38.414, 110, 119, 84
2023/06/21 05:11:39.534, 105, 123, 79
2023/06/21 05:11:40.670, 103, 129, 82
2023/06/21 05:11:41.805, 105, 121, 76
2023/06/21 05:11:42.925, 106, 126, 79
2023/06/21 05:11:44.061, 105, 123, 79
2023/06/21 05:11:45.181, 106, 127, 84
2023/06/21 05:11:46.317, 111, 121, 88
2023/06/21 05:11:47.453, 113, 125, 87
2023/06/21 05:11:48.573, 108, 124, 85
2023/06/21 05:11:49.709, 112, 124, 89
2023/06/21 05:11:50.845, 113, 126, 81
2023/06/21 05:11:51.965, 107, 124, 79